| time (UTC) | temp F | wind direction | speed MPH | gust MPH | rain 1hr in | rain 24hr in | rain mn in | humidity % | barometer mb |
| 20260507135724 | 58 | 310 | 2.0 | 6.0 | 0.00 | 0.46 | 0.17 | 72 | 1012.1 |
| 20260507135224 | 58 | 310 | 2.0 | 6.0 | 0.00 | 0.46 | 0.17 | 72 | 1012.1 |
| 20260507134723 | 59 | 306 | 3.0 | 6.0 | 0.00 | 0.46 | 0.17 | 72 | 1012.2 |
| 20260507134222 | 59 | 306 | 3.0 | 6.0 | 0.00 | 0.46 | 0.17 | 72 | 1012.2 |
| 20260507133721 | 59 | 311 | 2.0 | 6.0 | 0.00 | 0.47 | 0.17 | 74 | 1012.2 |
| 20260507133219 | 59 | 311 | 2.0 | 6.0 | 0.00 | 0.47 | 0.17 | 74 | 1012.2 |
| 20260507132719 | 58 | 313 | 2.0 | 6.0 | 0.00 | 0.50 | 0.17 | 73 | 1012.1 |
| 20260507132219 | 58 | 313 | 2.0 | 6.0 | 0.00 | 0.50 | 0.17 | 73 | 1012.1 |
| 20260507131717 | 58 | 316 | 2.0 | 6.0 | 0.00 | 0.51 | 0.17 | 72 | 1012.0 |
| 20260507131217 | 58 | 316 | 2.0 | 6.0 | 0.00 | 0.51 | 0.17 | 72 | 1012.0 |
| 20260507130715 | 59 | 327 | 1.0 | 4.0 | 0.00 | 0.51 | 0.17 | 71 | 1012.0 |
| 20260507130213 | 59 | 327 | 1.0 | 4.0 | 0.00 | 0.51 | 0.17 | 71 | 1012.0 |
| 20260507125712 | 59 | 295 | 2.0 | 5.0 | 0.00 | 0.51 | 0.17 | 71 | 1012.0 |
| 20260507125212 | 59 | 295 | 2.0 | 5.0 | 0.00 | 0.51 | 0.17 | 71 | 1012.0 |
| 20260507124712 | 60 | 0 | 1.0 | 2.0 | 0.00 | 0.51 | 0.17 | 70 | 1011.9 |
| 20260507124209 | 60 | 0 | 1.0 | 2.0 | 0.00 | 0.51 | 0.17 | 70 | 1011.9 |
| 20260507123708 | 60 | 327 | 1.0 | 4.0 | 0.00 | 0.51 | 0.17 | 71 | 1011.9 |
| 20260507123208 | 60 | 327 | 1.0 | 4.0 | 0.00 | 0.51 | 0.17 | 71 | 1011.9 |
| 20260507122707 | 60 | 270 | 1.0 | 3.0 | 0.00 | 0.51 | 0.17 | 74 | 1011.9 |
| 20260507122206 | 60 | 270 | 1.0 | 3.0 | 0.00 | 0.51 | 0.17 | 74 | 1011.9 |
| 20260507121705 | 59 | 304 | 1.0 | 3.0 | 0.00 | 0.51 | 0.17 | 75 | 1011.9 |
| 20260507121204 | 59 | 304 | 1.0 | 3.0 | 0.00 | 0.51 | 0.17 | 75 | 1011.9 |
| 20260507120702 | 58 | 322 | 1.0 | 4.0 | 0.00 | 0.52 | 0.17 | 76 | 1011.9 |
| 20260507120201 | 58 | 322 | 1.0 | 4.0 | 0.00 | 0.52 | 0.17 | 76 | 1011.9 |
| 20260507115700 | 58 | 315 | 1.0 | 2.0 | 0.00 | 0.54 | 0.17 | 76 | 1011.9 |
| 20260507115159 | 58 | 315 | 1.0 | 2.0 | 0.00 | 0.54 | 0.17 | 76 | 1011.9 |
| 20260507114659 | 57 | 315 | 1.0 | 3.0 | 0.00 | 0.54 | 0.17 | 76 | 1011.9 |
| 20260507114158 | 57 | 315 | 1.0 | 3.0 | 0.00 | 0.54 | 0.17 | 76 | 1011.9 |
| 20260507113657 | 57 | 298 | 2.0 | 4.0 | 0.00 | 0.54 | 0.17 | 77 | 1012.0 |
| 20260507113157 | 57 | 298 | 2.0 | 4.0 | 0.00 | 0.54 | 0.17 | 77 | 1012.0 |
| 20260507112655 | 56 | 300 | 2.0 | 5.0 | 0.00 | 0.54 | 0.17 | 78 | 1011.9 |
| 20260507112153 | 56 | 300 | 2.0 | 5.0 | 0.00 | 0.55 | 0.17 | 78 | 1011.9 |
| 20260507111652 | 56 | 306 | 2.0 | 4.0 | 0.00 | 0.55 | 0.17 | 78 | 1011.9 |
| 20260507111151 | 56 | 306 | 2.0 | 4.0 | 0.00 | 0.55 | 0.17 | 78 | 1011.9 |
| 20260507110651 | 56 | 303 | 2.0 | 6.0 | 0.00 | 0.55 | 0.17 | 76 | 1012.0 |
| 20260507110150 | 56 | 303 | 2.0 | 6.0 | 0.00 | 0.55 | 0.17 | 76 | 1012.0 |
| 20260507105649 | 56 | 310 | 4.0 | 9.0 | 0.00 | 0.55 | 0.17 | 77 | 1011.9 |
| 20260507105148 | 56 | 310 | 4.0 | 9.0 | 0.00 | 0.55 | 0.17 | 77 | 1011.9 |
| 20260507104647 | 57 | 305 | 3.0 | 7.0 | 0.00 | 0.55 | 0.17 | 76 | 1011.9 |
| 20260507104146 | 57 | 305 | 3.0 | 7.0 | 0.00 | 0.55 | 0.17 | 76 | 1011.9 |
| 20260507103645 | 58 | 319 | 2.0 | 6.0 | 0.00 | 0.55 | 0.17 | 75 | 1011.9 |
| 20260507103145 | 58 | 319 | 2.0 | 6.0 | 0.00 | 0.55 | 0.17 | 75 | 1011.9 |
| 20260507102643 | 58 | 210 | 1.0 | 2.0 | 0.00 | 0.55 | 0.17 | 78 | 1011.8 |
| 20260507102141 | 58 | 210 | 1.0 | 2.0 | 0.00 | 0.55 | 0.17 | 78 | 1011.8 |
| 20260507072607 | 51 | 135 | 1.0 | 2.0 | 0.01 | 0.55 | 0.17 | 96 | 1010.7 |
| 20260507072106 | 51 | 135 | 1.0 | 2.0 | 0.01 | 0.55 | 0.17 | 96 | 1010.7 |
| 20260507071605 | 51 | 180 | 1.0 | 3.0 | 0.01 | 0.55 | 0.17 | 97 | 1010.6 |
| 20260507071104 | 51 | 180 | 1.0 | 3.0 | 0.01 | 0.55 | 0.17 | 97 | 1010.6 |
| 20260507070603 | 51 | 194 | 1.0 | 3.0 | 0.02 | 0.55 | 0.17 | 98 | 1010.6 |
| 20260507065601 | 50 | 180 | 1.0 | 4.0 | 0.02 | 0.55 | 0.17 | 98 | 1010.4 |
| 20260507065100 | 50 | 180 | 1.0 | 4.0 | 0.02 | 0.55 | 0.17 | 98 | 1010.4 |
| 20260507064559 | 49 | 161 | 1.0 | 4.0 | 0.02 | 0.55 | 0.17 | 98 | 1010.3 |
| 20260507064057 | 49 | 161 | 1.0 | 4.0 | 0.02 | 0.55 | 0.17 | 98 | 1010.3 |
| 20260507063557 | 49 | 194 | 1.0 | 3.0 | 0.03 | 0.54 | 0.16 | 98 | 1010.2 |
| 20260507063057 | 49 | 194 | 1.0 | 3.0 | 0.03 | 0.54 | 0.16 | 98 | 1010.2 |
| 20260507062555 | 49 | 176 | 1.0 | 2.0 | 0.04 | 0.54 | 0.16 | 98 | 1010.2 |
| 20260507062053 | 49 | 176 | 1.0 | 2.0 | 0.04 | 0.54 | 0.16 | 98 | 1010.2 |
| 20260507061553 | 48 | 194 | 1.0 | 4.0 | 0.04 | 0.54 | 0.16 | 97 | 1010.1 |
| 20260507061053 | 48 | 194 | 1.0 | 4.0 | 0.04 | 0.54 | 0.16 | 97 | 1010.1 |
| 20260507060551 | 48 | 145 | 1.0 | 4.0 | 0.04 | 0.53 | 0.15 | 97 | 1010.0 |
| 20260507060051 | 48 | 145 | 1.0 | 4.0 | 0.04 | 0.53 | 0.15 | 97 | 1010.0 |
| 20260507055549 | 48 | 151 | 1.0 | 4.0 | 0.05 | 0.53 | 0.15 | 97 | 1009.9 |
| 20260507055048 | 48 | 151 | 1.0 | 4.0 | 0.05 | 0.53 | 0.15 | 97 | 1009.9 |
| 20260507054547 | 48 | 193 | 1.0 | 4.0 | 0.05 | 0.52 | 0.14 | 97 | 1009.8 |
| 20260507054047 | 48 | 193 | 1.0 | 4.0 | 0.05 | 0.52 | 0.14 | 97 | 1009.8 |
| 20260507053545 | 48 | 158 | 1.0 | 3.0 | 0.05 | 0.52 | 0.14 | 97 | 1009.6 |
| 20260507053044 | 48 | 158 | 1.0 | 3.0 | 0.05 | 0.52 | 0.14 | 97 | 1009.6 |
| 20260507052544 | 48 | 140 | 1.0 | 3.0 | 0.04 | 0.51 | 0.12 | 97 | 1009.5 |
| 20260507052042 | 48 | 140 | 1.0 | 3.0 | 0.04 | 0.51 | 0.12 | 97 | 1009.5 |
| 20260507051542 | 47 | 161 | 1.0 | 2.0 | 0.04 | 0.49 | 0.11 | 97 | 1009.4 |
| 20260507051040 | 47 | 161 | 1.0 | 2.0 | 0.04 | 0.49 | 0.11 | 97 | 1009.4 |
| 20260507050539 | 47 | 150 | 1.0 | 3.0 | 0.04 | 0.49 | 0.11 | 97 | 1009.3 |
| 20260507050038 | 47 | 150 | 1.0 | 3.0 | 0.04 | 0.49 | 0.11 | 97 | 1009.3 |
| 20260507045537 | 47 | 90 | 1.0 | 3.0 | 0.04 | 0.48 | 0.10 | 97 | 1009.2 |
| 20260507045036 | 47 | 90 | 1.0 | 3.0 | 0.04 | 0.48 | 0.10 | 97 | 1009.2 |
| 20260507044534 | 47 | 163 | 1.0 | 3.0 | 0.04 | 0.48 | 0.10 | 96 | 1009.0 |
| 20260507044033 | 47 | 163 | 1.0 | 3.0 | 0.04 | 0.48 | 0.10 | 96 | 1009.0 |
| 20260507043533 | 47 | 173 | 1.0 | 3.0 | 0.04 | 0.47 | 0.09 | 96 | 1008.9 |
| 20260507043032 | 47 | 173 | 1.0 | 3.0 | 0.04 | 0.47 | 0.09 | 96 | 1008.9 |
| 20260507042530 | 47 | 174 | 1.0 | 3.0 | 0.03 | 0.46 | 0.08 | 96 | 1008.8 |
| 20260507042030 | 47 | 174 | 1.0 | 3.0 | 0.03 | 0.46 | 0.08 | 96 | 1008.8 |
| 20260507041529 | 47 | 175 | 1.0 | 5.0 | 0.03 | 0.45 | 0.07 | 96 | 1008.7 |
| 20260507041028 | 47 | 175 | 1.0 | 5.0 | 0.03 | 0.45 | 0.07 | 96 | 1008.7 |
| 20260507040527 | 47 | 184 | 1.0 | 4.0 | 0.02 | 0.45 | 0.06 | 96 | 1008.7 |
| 20260507040026 | 47 | 184 | 1.0 | 4.0 | 0.02 | 0.45 | 0.06 | 96 | 1008.7 |
| 20260507035525 | 47 | 154 | 1.0 | 3.0 | 0.02 | 0.44 | 0.06 | 96 | 1008.5 |
| 20260507035024 | 47 | 154 | 1.0 | 3.0 | 0.02 | 0.44 | 0.06 | 96 | 1008.5 |
| 20260507034523 | 47 | 177 | 1.0 | 4.0 | 0.01 | 0.44 | 0.06 | 96 | 1008.5 |
| 20260507034022 | 47 | 177 | 1.0 | 4.0 | 0.01 | 0.44 | 0.06 | 96 | 1008.5 |
| 20260507033521 | 47 | 171 | 1.0 | 4.0 | 0.01 | 0.43 | 0.05 | 95 | 1008.4 |
| 20260507033019 | 47 | 171 | 1.0 | 4.0 | 0.01 | 0.43 | 0.05 | 95 | 1008.4 |
| 20260507032518 | 48 | 166 | 1.0 | 3.0 | 0.01 | 0.43 | 0.05 | 95 | 1008.3 |
| 20260507032018 | 48 | 166 | 1.0 | 3.0 | 0.01 | 0.43 | 0.05 | 95 | 1008.3 |
| 20260507031517 | 48 | 178 | 2.0 | 4.0 | 0.00 | 0.43 | 0.04 | 95 | 1008.2 |
| 20260507031016 | 48 | 178 | 2.0 | 4.0 | 0.01 | 0.43 | 0.04 | 95 | 1008.2 |
| 20260507030515 | 48 | 175 | 1.0 | 4.0 | 0.01 | 0.43 | 0.04 | 95 | 1008.2 |
| 20260507025512 | 48 | 172 | 1.0 | 3.0 | 0.01 | 0.43 | 0.04 | 96 | 1008.3 |
| 20260507024510 | 48 | 170 | 1.0 | 4.0 | 0.01 | 0.43 | 0.04 | 96 | 1008.2 |
| 20260507023508 | 48 | 170 | 1.0 | 4.0 | 0.02 | 0.43 | 0.04 | 96 | 1008.2 |
| 20260507022507 | 48 | 167 | 1.0 | 3.0 | 0.01 | 0.42 | 0.04 | 96 | 1008.2 |
| 20260507021507 | 48 | 165 | 1.0 | 4.0 | 0.02 | 0.42 | 0.04 | 96 | 1008.1 |
| 20260507020503 | 48 | 151 | 1.0 | 4.0 | 0.01 | 0.41 | 0.03 | 96 | 1007.9 |
| 20260507015501 | 48 | 168 | 1.0 | 4.0 | 0.01 | 0.41 | 0.03 | 95 | 1007.9 |
| 20260507015000 | 48 | 167 | 1.0 | 4.0 | 0.01 | 0.41 | 0.03 | 95 | 1007.8 |
| 20260507014459 | 48 | 167 | 1.0 | 4.0 | 0.01 | 0.41 | 0.03 | 95 | 1007.8 |
| 20260507013958 | 48 | 174 | 1.0 | 2.0 | 0.00 | 0.41 | 0.03 | 95 | 1007.7 |
| 20260507013456 | 48 | 174 | 1.0 | 2.0 | 0.00 | 0.41 | 0.03 | 95 | 1007.7 |
| 20260507012955 | 48 | 214 | 1.0 | 3.0 | 0.00 | 0.41 | 0.03 | 96 | 1007.6 |
| 20260507012454 | 48 | 214 | 1.0 | 3.0 | 0.00 | 0.41 | 0.03 | 96 | 1007.6 |
| 20260507011953 | 48 | 197 | 1.0 | 3.0 | 0.00 | 0.41 | 0.02 | 96 | 1007.6 |
| 20260507011452 | 48 | 197 | 1.0 | 3.0 | 0.00 | 0.41 | 0.02 | 96 | 1007.6 |
| 20260507010951 | 48 | 192 | 1.0 | 4.0 | 0.00 | 0.41 | 0.02 | 96 | 1007.6 |
| 20260507010451 | 48 | 192 | 1.0 | 4.0 | 0.00 | 0.41 | 0.02 | 96 | 1007.6 |
| 20260507005950 | 48 | 193 | 1.0 | 3.0 | 0.00 | 0.41 | 0.02 | 96 | 1007.7 |
| 20260507005448 | 48 | 193 | 1.0 | 3.0 | 0.00 | 0.41 | 0.02 | 96 | 1007.7 |
| 20260507004947 | 48 | 205 | 2.0 | 4.0 | 0.00 | 0.41 | 0.02 | 96 | 1007.5 |
| 20260507004446 | 48 | 205 | 2.0 | 4.0 | 0.00 | 0.41 | 0.02 | 96 | 1007.5 |
| 20260507003945 | 48 | 216 | 2.0 | 4.0 | 0.00 | 0.41 | 0.02 | 96 | 1007.5 |
| 20260507003444 | 48 | 216 | 2.0 | 4.0 | 0.00 | 0.41 | 0.02 | 96 | 1007.5 |
| 20260507002943 | 48 | 221 | 2.0 | 5.0 | 0.00 | 0.41 | 0.02 | 96 | 1007.5 |
| 20260507002443 | 48 | 221 | 2.0 | 5.0 | 0.00 | 0.41 | 0.02 | 96 | 1007.5 |
| 20260507001941 | 48 | 203 | 2.0 | 3.0 | 0.01 | 0.41 | 0.02 | 96 | 1007.4 |
| 20260507001440 | 48 | 203 | 2.0 | 3.0 | 0.01 | 0.41 | 0.02 | 96 | 1007.4 |
| 20260507000939 | 48 | 203 | 2.0 | 4.0 | 0.01 | 0.41 | 0.02 | 96 | 1007.5 |
| 20260507000438 | 48 | 203 | 2.0 | 4.0 | 0.01 | 0.41 | 0.02 | 96 | 1007.5 |
| 20260506235938 | 48 | 190 | 2.0 | 4.0 | 0.01 | 0.41 | 0.02 | 96 | 1007.5 |
| 20260506235436 | 48 | 190 | 2.0 | 4.0 | 0.01 | 0.41 | 0.02 | 96 | 1007.5 |
| 20260506234935 | 48 | 200 | 4.0 | 5.0 | 0.01 | 0.40 | 0.02 | 95 | 1007.5 |
| 20260506234434 | 48 | 200 | 4.0 | 5.0 | 0.01 | 0.40 | 0.02 | 95 | 1007.5 |
| 20260506233933 | 48 | 207 | 5.0 | 7.0 | 0.01 | 0.40 | 0.02 | 95 | 1007.5 |
| 20260506233432 | 48 | 207 | 5.0 | 7.0 | 0.01 | 0.40 | 0.02 | 95 | 1007.5 |
| 20260506232932 | 48 | 200 | 5.0 | 7.0 | 0.01 | 0.40 | 0.02 | 95 | 1007.5 |
| 20260506232431 | 48 | 200 | 5.0 | 7.0 | 0.02 | 0.40 | 0.02 | 95 | 1007.5 |
| 20260506231930 | 48 | 195 | 4.0 | 7.0 | 0.01 | 0.40 | 0.02 | 95 | 1007.5 |
| 20260506231428 | 48 | 195 | 4.0 | 7.0 | 0.01 | 0.40 | 0.02 | 95 | 1007.5 |
| 20260506230927 | 48 | 201 | 5.0 | 9.0 | 0.01 | 0.40 | 0.02 | 95 | 1007.5 |
| 20260506230426 | 48 | 201 | 5.0 | 9.0 | 0.02 | 0.40 | 0.02 | 95 | 1007.5 |
| 20260506225925 | 49 | 222 | 8.0 | 12.0 | 0.01 | 0.39 | 0.01 | 95 | 1007.6 |
| 20260506225425 | 49 | 222 | 8.0 | 12.0 | 0.01 | 0.39 | 0.01 | 95 | 1007.6 |
| 20260506224924 | 49 | 270 | 2.0 | 14.0 | 0.01 | 0.39 | 0.01 | 95 | 1007.6 |
| 20260506224423 | 49 | 270 | 2.0 | 14.0 | 0.02 | 0.39 | 0.01 | 95 | 1007.6 |
| 20260506223922 | 49 | 302 | 1.0 | 2.0 | 0.02 | 0.39 | 0.01 | 94 | 1007.6 |
| 20260506223421 | 49 | 106 | 1.0 | 3.0 | 0.02 | 0.39 | 0.01 | 94 | 1007.6 |
| 20260506222919 | 49 | 106 | 1.0 | 3.0 | 0.02 | 0.39 | 0.01 | 94 | 1007.6 |
| 20260506222418 | 49 | 67 | 2.0 | 4.0 | 0.02 | 0.39 | 0.00 | 94 | 1007.6 |
| 20260506221917 | 49 | 67 | 2.0 | 4.0 | 0.02 | 0.39 | 0.00 | 94 | 1007.6 |
| 20260506221417 | 49 | 75 | 2.0 | 4.0 | 0.02 | 0.39 | 0.00 | 94 | 1007.5 |
| 20260506220916 | 49 | 75 | 2.0 | 4.0 | 0.02 | 0.39 | 0.00 | 94 | 1007.5 |
| 20260506220415 | 49 | 90 | 1.0 | 4.0 | 0.02 | 0.38 | 0.00 | 94 | 1007.4 |
| 20260506215915 | 49 | 90 | 1.0 | 4.0 | 0.02 | 0.38 | 0.38 | 94 | 1007.4 |
| 20260506215413 | 49 | 135 | 2.0 | 6.0 | 0.02 | 0.38 | 0.38 | 94 | 1007.3 |
| 20260506214912 | 49 | 135 | 2.0 | 6.0 | 0.02 | 0.38 | 0.38 | 94 | 1007.3 |
| 20260506214411 | 49 | 159 | 1.0 | 4.0 | 0.02 | 0.38 | 0.38 | 94 | 1007.3 |
| 20260506213910 | 49 | 159 | 1.0 | 4.0 | 0.02 | 0.38 | 0.38 | 94 | 1007.3 |
| 20260506213410 | 49 | 174 | 1.0 | 4.0 | 0.01 | 0.37 | 0.37 | 94 | 1007.2 |
| 20260506212907 | 49 | 174 | 1.0 | 4.0 | 0.01 | 0.37 | 0.37 | 94 | 1007.2 |
| 20260506212406 | 50 | 180 | 1.0 | 3.0 | 0.01 | 0.37 | 0.37 | 94 | 1007.1 |
| 20260506211906 | 50 | 180 | 1.0 | 3.0 | 0.01 | 0.37 | 0.37 | 94 | 1007.1 |
| 20260506211405 | 50 | 180 | 1.0 | 4.0 | 0.01 | 0.37 | 0.37 | 94 | 1007.1 |
| 20260506210904 | 50 | 180 | 1.0 | 4.0 | 0.01 | 0.37 | 0.37 | 94 | 1007.1 |
| 20260506210402 | 50 | 186 | 1.0 | 2.0 | 0.01 | 0.37 | 0.37 | 93 | 1007.1 |
| 20260506205901 | 50 | 186 | 1.0 | 2.0 | 0.01 | 0.37 | 0.37 | 93 | 1007.1 |
| 20260506205400 | 50 | 177 | 1.0 | 3.0 | 0.00 | 0.37 | 0.36 | 93 | 1007.1 |
| 20260506204900 | 50 | 177 | 1.0 | 3.0 | 0.00 | 0.37 | 0.36 | 93 | 1007.1 |
| 20260506204359 | 50 | 173 | 1.0 | 3.0 | 0.00 | 0.36 | 0.36 | 93 | 1007.0 |
| 20260506203858 | 50 | 173 | 1.0 | 3.0 | 0.00 | 0.36 | 0.36 | 93 | 1007.0 |
| 20260506203357 | 50 | 163 | 1.0 | 2.0 | 0.00 | 0.36 | 0.36 | 94 | 1007.0 |
| 20260506202856 | 50 | 163 | 1.0 | 2.0 | 0.00 | 0.36 | 0.36 | 94 | 1007.0 |
| 20260506202354 | 50 | 183 | 1.0 | 3.0 | 0.00 | 0.36 | 0.36 | 94 | 1006.9 |
| 20260506201854 | 50 | 183 | 1.0 | 3.0 | 0.00 | 0.36 | 0.36 | 94 | 1006.9 |
| 20260506201353 | 50 | 183 | 1.0 | 3.0 | 0.00 | 0.36 | 0.36 | 94 | 1006.9 |
| 20260506200852 | 50 | 164 | 1.0 | 2.0 | 0.00 | 0.36 | 0.36 | 94 | 1006.8 |
| 20260506200351 | 50 | 164 | 1.0 | 2.0 | 0.00 | 0.36 | 0.36 | 94 | 1006.8 |
| 20260506195850 | 50 | 135 | 1.0 | 2.0 | 0.00 | 0.36 | 0.36 | 94 | 1006.7 |
| 20260506195350 | 50 | 135 | 1.0 | 2.0 | 0.00 | 0.36 | 0.36 | 94 | 1006.7 |
| 20260506194848 | 50 | 216 | 1.0 | 2.0 | 0.00 | 0.36 | 0.36 | 94 | 1006.5 |
| 20260506194348 | 50 | 216 | 1.0 | 2.0 | 0.00 | 0.36 | 0.36 | 94 | 1006.5 |
| 20260506193846 | 50 | 90 | 1.0 | 1.0 | 0.00 | 0.36 | 0.36 | 93 | 1006.4 |
| 20260506193345 | 50 | 90 | 1.0 | 1.0 | 0.00 | 0.36 | 0.36 | 93 | 1006.4 |
| 20260506192844 | 50 | 173 | 1.0 | 2.0 | 0.00 | 0.36 | 0.36 | 93 | 1006.3 |
| 20260506192343 | 50 | 173 | 1.0 | 2.0 | 0.00 | 0.36 | 0.36 | 93 | 1006.3 |
| 20260506191842 | 50 | 173 | 1.0 | 3.0 | 0.00 | 0.36 | 0.36 | 93 | 1006.2 |
| 20260506191340 | 50 | 173 | 1.0 | 3.0 | 0.00 | 0.36 | 0.36 | 93 | 1006.2 |
| 20260506190840 | 50 | 330 | 1.0 | 2.0 | 0.01 | 0.36 | 0.36 | 93 | 1006.0 |
| 20260506190338 | 50 | 330 | 1.0 | 2.0 | 0.01 | 0.36 | 0.36 | 93 | 1006.0 |
| 20260506185838 | 51 | 315 | 1.0 | 2.0 | 0.02 | 0.36 | 0.36 | 93 | 1005.9 |
| 20260506185337 | 51 | 315 | 1.0 | 2.0 | 0.02 | 0.36 | 0.36 | 93 | 1005.9 |
| 20260506184836 | 51 | 154 | 1.0 | 3.0 | 0.02 | 0.36 | 0.36 | 92 | 1005.8 |
| 20260506184334 | 51 | 154 | 1.0 | 3.0 | 0.02 | 0.36 | 0.36 | 92 | 1005.8 |
| 20260506183833 | 51 | 180 | 1.0 | 3.0 | 0.02 | 0.36 | 0.36 | 92 | 1005.6 |
| 20260506183332 | 51 | 180 | 1.0 | 3.0 | 0.02 | 0.36 | 0.36 | 92 | 1005.6 |
| 20260506182832 | 51 | 180 | 2.0 | 4.0 | 0.02 | 0.36 | 0.36 | 92 | 1005.7 |
| 20260506182331 | 51 | 180 | 2.0 | 4.0 | 0.02 | 0.37 | 0.36 | 92 | 1005.7 |
| 20260506181830 | 51 | 205 | 2.0 | 4.0 | 0.02 | 0.36 | 0.35 | 92 | 1005.6 |
| 20260506181329 | 51 | 205 | 2.0 | 4.0 | 0.02 | 0.37 | 0.35 | 92 | 1005.6 |
| 20260506180828 | 52 | 198 | 2.0 | 4.0 | 0.03 | 0.36 | 0.35 | 93 | 1005.6 |
| 20260506180327 | 52 | 198 | 2.0 | 4.0 | 0.03 | 0.37 | 0.35 | 93 | 1005.6 |
| 20260506175826 | 52 | 164 | 1.0 | 2.0 | 0.03 | 0.36 | 0.34 | 93 | 1005.4 |
| 20260506175324 | 52 | 164 | 1.0 | 2.0 | 0.03 | 0.36 | 0.34 | 93 | 1005.4 |
| 20260506174823 | 52 | 195 | 1.0 | 4.0 | 0.04 | 0.35 | 0.34 | 93 | 1005.3 |
| 20260506174322 | 52 | 195 | 1.0 | 4.0 | 0.04 | 0.36 | 0.34 | 93 | 1005.3 |
| 20260506173822 | 52 | 198 | 1.0 | 2.0 | 0.04 | 0.35 | 0.33 | 92 | 1005.3 |
| 20260506173320 | 52 | 198 | 1.0 | 2.0 | 0.04 | 0.37 | 0.33 | 92 | 1005.3 |
| 20260506172820 | 52 | 203 | 1.0 | 4.0 | 0.05 | 0.37 | 0.33 | 92 | 1005.3 |
| 20260506172318 | 52 | 203 | 1.0 | 4.0 | 0.05 | 0.37 | 0.33 | 92 | 1005.3 |
| 20260506171818 | 52 | 187 | 1.0 | 3.0 | 0.05 | 0.37 | 0.33 | 92 | 1005.2 |
| 20260506171317 | 52 | 187 | 1.0 | 3.0 | 0.05 | 0.37 | 0.33 | 92 | 1005.2 |
| 20260506170816 | 52 | 190 | 1.0 | 4.0 | 0.05 | 0.36 | 0.32 | 91 | 1005.2 |
| 20260506170314 | 52 | 190 | 1.0 | 4.0 | 0.05 | 0.38 | 0.32 | 91 | 1005.2 |
| 20260506165813 | 53 | 168 | 1.0 | 4.0 | 0.04 | 0.37 | 0.31 | 92 | 1005.2 |
| 20260506165312 | 53 | 168 | 1.0 | 4.0 | 0.04 | 0.38 | 0.31 | 92 | 1005.2 |
| 20260506164811 | 53 | 175 | 1.0 | 4.0 | 0.03 | 0.37 | 0.30 | 91 | 1005.3 |
| 20260506164310 | 53 | 175 | 1.0 | 4.0 | 0.03 | 0.37 | 0.30 | 91 | 1005.3 |
| 20260506163810 | 53 | 90 | 1.0 | 3.0 | 0.03 | 0.37 | 0.30 | 91 | 1005.1 |
| 20260506163309 | 53 | 90 | 1.0 | 3.0 | 0.03 | 0.37 | 0.30 | 91 | 1005.1 |
| 20260506162809 | 54 | 119 | 1.0 | 2.0 | 0.02 | 0.36 | 0.29 | 91 | 1005.0 |
| 20260506162407 | 54 | 119 | 1.0 | 2.0 | 0.02 | 0.36 | 0.29 | 91 | 1005.0 |
| 20260506161906 | 54 | 149 | 1.0 | 3.0 | 0.04 | 0.35 | 0.28 | 91 | 1004.9 |
| 20260506161304 | 54 | 149 | 1.0 | 3.0 | 0.04 | 0.35 | 0.28 | 91 | 1004.9 |
| 20260506160804 | 54 | 181 | 2.0 | 5.0 | 0.04 | 0.34 | 0.27 | 91 | 1004.8 |
| 20260506160302 | 54 | 181 | 2.0 | 5.0 | 0.04 | 0.34 | 0.27 | 91 | 1004.8 |
| 20260506155802 | 54 | 180 | 1.0 | 4.0 | 0.07 | 0.34 | 0.27 | 90 | 1004.7 |
| 20260506155301 | 54 | 180 | 1.0 | 4.0 | 0.07 | 0.34 | 0.27 | 90 | 1004.7 |
| 20260506154800 | 55 | 184 | 2.0 | 4.0 | 0.10 | 0.34 | 0.27 | 90 | 1004.6 |
| 20260506154258 | 55 | 184 | 2.0 | 4.0 | 0.10 | 0.34 | 0.27 | 90 | 1004.6 |
| 20260506153757 | 55 | 200 | 2.0 | 5.0 | 0.14 | 0.34 | 0.27 | 91 | 1004.6 |
| 20260506153256 | 55 | 200 | 2.0 | 5.0 | 0.14 | 0.34 | 0.27 | 91 | 1004.6 |
| 20260506152755 | 55 | 171 | 1.0 | 3.0 | 0.15 | 0.34 | 0.27 | 92 | 1004.6 |
| 20260506152254 | 55 | 171 | 1.0 | 3.0 | 0.15 | 0.34 | 0.27 | 92 | 1004.6 |
| 20260506151754 | 55 | 215 | 1.0 | 2.0 | 0.12 | 0.31 | 0.23 | 91 | 1004.5 |
| 20260506151253 | 55 | 215 | 1.0 | 2.0 | 0.12 | 0.31 | 0.23 | 91 | 1004.5 |
| 20260506150752 | 56 | 135 | 1.0 | 2.0 | 0.12 | 0.30 | 0.23 | 91 | 1004.5 |
| 20260506150251 | 56 | 135 | 1.0 | 2.0 | 0.12 | 0.30 | 0.23 | 91 | 1004.5 |
| 20260506145749 | 56 | 225 | 1.0 | 2.0 | 0.11 | 0.27 | 0.20 | 90 | 1004.4 |
| 20260506145248 | 56 | 225 | 1.0 | 2.0 | 0.11 | 0.27 | 0.20 | 90 | 1004.4 |
| 20260506144747 | 56 | 135 | 1.0 | 2.0 | 0.08 | 0.24 | 0.17 | 90 | 1004.3 |
| 20260506144247 | 56 | 135 | 1.0 | 2.0 | 0.08 | 0.24 | 0.17 | 90 | 1004.3 |
| 20260506143746 | 56 | 195 | 1.0 | 3.0 | 0.06 | 0.21 | 0.14 | 89 | 1004.3 |
| 20260506143245 | 56 | 195 | 1.0 | 3.0 | 0.06 | 0.21 | 0.14 | 89 | 1004.3 |
| 20260506142744 | 56 | 194 | 1.0 | 2.0 | 0.07 | 0.19 | 0.12 | 90 | 1004.2 |
| 20260506142242 | 56 | 194 | 1.0 | 2.0 | 0.07 | 0.19 | 0.12 | 90 | 1004.2 |
| 20260506141741 | 56 | 173 | 1.0 | 2.0 | 0.08 | 0.19 | 0.12 | 89 | 1004.1 |
| 20260506141240 | 56 | 173 | 1.0 | 2.0 | 0.08 | 0.19 | 0.12 | 89 | 1004.1 |
| 20260506140739 | 56 | 200 | 1.0 | 3.0 | 0.06 | 0.18 | 0.10 | 88 | 1004.1 |
| 20260506140238 | 56 | 200 | 1.0 | 3.0 | 0.06 | 0.18 | 0.10 | 88 | 1004.1 |